HFY1E HTZA-HUEN

Flight info

Callsign HFY1E
Flight time N/A
Altitude 40000
Route EGPET UT913 ASOLE/N0388F240 L434 KV/N0463F400 UL434 OKSUM UVGUD2A
Aircraft A339/H-SADE1E2E3GHIJ3J5M1P2RWXY/LB2D1

Departure

Time 2026-04-25 19:03
Airport Abeid Amani Karume International Airport (HTZA)

Arrival

Time N/A
Airport Entebbe International Airport (HUEN)
Time Latitude Longitude Altitude Speed Heading
2026-04-25 18:27 -6.22344 39.22172 64 ft 0 kts 354°
2026-04-25 18:52 -6.22350 39.22172 65 ft 2 kts 354°
2026-04-25 18:53 -6.22365 39.22174 65 ft 2 kts 354°
2026-04-25 18:53 -6.22380 39.22176 65 ft 2 kts 354°
2026-04-25 18:53 -6.22395 39.22176 65 ft 2 kts 12°
2026-04-25 18:53 -6.22410 39.22171 65 ft 2 kts 30°
2026-04-25 18:54 -6.22432 39.22146 65 ft 2 kts 68°
2026-04-25 18:54 -6.22436 39.22133 66 ft 0 kts 84°
2026-04-25 18:54 -6.22436 39.22129 66 ft 0 kts 85°
2026-04-25 18:56 -6.22436 39.22130 66 ft 0 kts 85°
2026-04-25 18:57 -6.22433 39.22174 65 ft 9 kts 85°
2026-04-25 18:57 -6.22426 39.22241 65 ft 9 kts 84°
2026-04-25 18:57 -6.22410 39.22306 65 ft 10 kts 54°
2026-04-25 18:57 -6.22392 39.22322 65 ft 10 kts 29°
2026-04-25 18:58 -6.22263 39.22323 65 ft 12 kts 354°
2026-04-25 18:58 -6.22074 39.22304 65 ft 14 kts 354°
2026-04-25 18:58 -6.21974 39.22295 65 ft 14 kts 354°
2026-04-25 18:59 -6.21787 39.22289 66 ft 11 kts 31°
2026-04-25 18:59 -6.21764 39.22343 66 ft 0 kts 81°
2026-04-25 19:00 -6.21732 39.22427 67 ft 9 kts 32°
2026-04-25 19:00 -6.21653 39.22434 68 ft 14 kts 354°
2026-04-25 19:01 -6.21406 39.22408 68 ft 18 kts 354°
2026-04-25 19:01 -6.21277 39.22395 69 ft 18 kts 355°
2026-04-25 19:01 -6.21177 39.22368 71 ft 13 kts 326°
2026-04-25 19:01 -6.21131 39.22359 71 ft 2 kts 55°
2026-04-25 19:02 -6.21160 39.22381 71 ft 0 kts 169°
2026-04-25 19:02 -6.21383 39.22404 68 ft 65 kts 173°
2026-04-25 19:02 -6.22046 39.22472 65 ft 123 kts 175°
2026-04-25 19:03 -6.23447 39.22606 219 ft 168 kts 175°
2026-04-25 19:03 -6.25357 39.22821 1128 ft 170 kts 171°
2026-04-25 19:03 -6.26522 39.23019 1625 ft 176 kts 159°
2026-04-25 19:04 -6.27492 39.25168 2305 ft 217 kts 71°
2026-04-25 19:04 -6.26552 39.26369 2683 ft 242 kts 33°
2026-04-25 19:05 -6.23178 39.27401 3576 ft 276 kts 14°
2026-04-25 19:05 -6.19423 39.28386 5108 ft 280 kts 19°
2026-04-25 19:05 -6.17600 39.28954 5831 ft 283 kts 20°
2026-04-25 19:06 -6.15817 39.29545 6524 ft 285 kts 20°
2026-04-25 19:06 -6.12243 39.30777 7857 ft 289 kts 21°
2026-04-25 19:06 -6.10428 39.31412 8531 ft 290 kts 21°
2026-04-25 19:07 -6.06804 39.32685 9809 ft 294 kts 21°
2026-04-25 19:07 -6.04965 39.33332 10367 ft 298 kts 21°
2026-04-25 19:08 -6.01125 39.34690 10919 ft 328 kts 21°
2026-04-25 19:08 -5.99027 39.35429 11180 ft 344 kts 20°
2026-04-25 19:09 -5.92107 39.37863 12059 ft 383 kts 20°
2026-04-25 19:09 -5.91305 39.38145 12243 ft 385 kts 20°
2026-04-25 19:09 -5.84342 39.37592 13812 ft 395 kts 329°
2026-04-25 19:10 -5.82200 39.36254 14390 ft 397 kts 328°
2026-04-25 19:10 -5.80013 39.34915 14917 ft 400 kts 329°
2026-04-25 19:10 -5.77817 39.33594 15465 ft 401 kts 329°
2026-04-25 19:10 -5.75561 39.32248 16018 ft 403 kts 329°
2026-04-25 19:11 -5.73368 39.30946 16537 ft 405 kts 329°
2026-04-25 19:11 -5.71127 39.29615 17053 ft 407 kts 329°
2026-04-25 19:11 -5.68829 39.28252 17574 ft 408 kts 329°
2026-04-25 19:11 -5.66541 39.26899 18071 ft 410 kts 330°
2026-04-25 19:12 -5.64075 39.25441 18545 ft 414 kts 330°
2026-04-25 19:12 -5.61721 39.24049 18976 ft 418 kts 330°
2026-04-25 19:12 -5.59227 39.22575 19453 ft 420 kts 330°
2026-04-25 19:12 -5.56702 39.21083 19922 ft 423 kts 331°
2026-04-25 19:13 -5.54140 39.19572 20374 ft 426 kts 331°
2026-04-25 19:13 -5.51576 39.18060 20775 ft 429 kts 331°
2026-04-25 19:13 -5.49011 39.16546 21202 ft 432 kts 331°
2026-04-25 19:13 -5.46413 39.15013 21624 ft 434 kts 331°
2026-04-25 19:14 -5.43799 39.13473 21994 ft 438 kts 331°
2026-04-25 19:14 -5.42922 39.12956 22117 ft 439 kts 331°
2026-04-25 19:14 -5.38531 39.10365 22744 ft 443 kts 331°
2026-04-25 19:14 -5.35819 39.08765 23136 ft 446 kts 331°
2026-04-25 19:15 -5.33127 39.07177 23538 ft 448 kts 332°
2026-04-25 19:15 -5.30435 39.05589 23905 ft 450 kts 331°
2026-04-25 19:15 -5.27696 39.03973 24279 ft 453 kts 331°
2026-04-25 19:15 -5.24982 39.02374 24650 ft 455 kts 332°
2026-04-25 19:16 -5.22214 39.00740 25018 ft 458 kts 331°
2026-04-25 19:16 -5.19428 38.99098 25381 ft 460 kts 332°
2026-04-25 19:16 -5.16665 38.97472 25729 ft 462 kts 332°
2026-04-25 19:16 -5.13904 38.95843 26057 ft 465 kts 331°
2026-04-25 19:17 -5.11117 38.94201 26380 ft 466 kts 331°
2026-04-25 19:17 -5.08296 38.92534 26657 ft 468 kts 331°
2026-04-25 19:17 -5.05484 38.90876 26964 ft 471 kts 332°
2026-04-25 19:17 -5.02636 38.89198 27299 ft 472 kts 331°
2026-04-25 19:18 -4.99815 38.87536 27609 ft 474 kts 331°
2026-04-25 19:18 -4.96927 38.85834 27910 ft 476 kts 331°
2026-04-25 19:18 -4.94063 38.84147 28213 ft 478 kts 331°
2026-04-25 19:18 -4.91177 38.82447 28512 ft 480 kts 331°
2026-04-25 19:19 -4.88273 38.80735 28818 ft 482 kts 331°
2026-04-25 19:19 -4.85400 38.79033 29111 ft 484 kts 330°
2026-04-25 19:19 -4.82496 38.77264 29498 ft 484 kts 330°
2026-04-25 19:19 -4.81558 38.76688 29646 ft 484 kts 330°
2026-04-25 19:20 -4.76790 38.73750 30397 ft 481 kts 330°
2026-04-25 19:20 -4.73942 38.71999 30828 ft 480 kts 330°
2026-04-25 19:20 -4.71116 38.70262 31244 ft 479 kts 330°
2026-04-25 19:20 -4.68282 38.68525 31664 ft 478 kts 331°
2026-04-25 19:21 -4.65449 38.66788 32086 ft 477 kts 331°
2026-04-25 19:21 -4.59793 38.63323 32945 ft 475 kts 331°
2026-04-25 19:21 -4.56967 38.61595 33430 ft 473 kts 331°
2026-04-25 19:22 -4.54171 38.59884 33922 ft 472 kts 331°
2026-04-25 19:22 -4.51342 38.58154 34463 ft 469 kts 331°
2026-04-25 19:22 -4.45820 38.54774 35502 ft 463 kts 331°
2026-04-25 19:23 -4.43070 38.53091 35982 ft 461 kts 331°
2026-04-25 19:23 -4.37619 38.49758 36788 ft 458 kts 331°
2026-04-25 19:23 -4.34882 38.48084 37146 ft 457 kts 331°
2026-04-25 19:24 -4.32179 38.46431 37481 ft 456 kts 330°
2026-04-25 19:24 -4.29461 38.44768 37833 ft 455 kts 330°
2026-04-25 19:24 -4.24079 38.41478 38506 ft 452 kts 330°
2026-04-25 19:25 -4.18687 38.38180 38978 ft 453 kts 330°
2026-04-25 19:25 -4.15993 38.36531 39218 ft 454 kts 330°
2026-04-25 19:25 -4.13398 38.34944 39414 ft 454 kts 330°
2026-04-25 19:26 -4.10700 38.33294 39602 ft 455 kts 330°
2026-04-25 19:26 -4.08067 38.31685 39802 ft 456 kts 330°
2026-04-25 19:26 -4.05552 38.30147 39966 ft 456 kts 330°
2026-04-25 19:26 -4.02844 38.28491 40073 ft 458 kts 330°
2026-04-25 19:27 -3.99286 38.26298 40077 ft 458 kts 330°
2026-04-25 19:27 -3.92707 38.22233 40080 ft 458 kts 330°
2026-04-25 19:28 -3.87306 38.18899 40075 ft 458 kts 330°
2026-04-25 19:28 -3.81895 38.15561 40077 ft 457 kts 330°
2026-04-25 19:29 -3.76469 38.12217 40077 ft 457 kts 330°
2026-04-25 19:29 -3.71019 38.08856 40077 ft 457 kts 330°
2026-04-25 19:30 -3.65992 38.04992 40088 ft 461 kts 317°
2026-04-25 19:30 -3.62014 37.99933 40084 ft 465 kts 303°
2026-04-25 19:31 -3.59413 37.94021 40095 ft 469 kts 289°
2026-04-25 19:31 -3.57660 37.87668 40094 ft 470 kts 290°
2026-04-25 19:32 -3.55565 37.81467 40097 ft 469 kts 292°
2026-04-25 19:32 -3.54202 37.77371 40097 ft 469 kts 289°
2026-04-25 19:33 -3.52276 37.68852 40101 ft 473 kts 282°
2026-04-25 19:33 -3.51239 37.62428 40101 ft 473 kts 282°
2026-04-25 19:34 -3.50203 37.55987 40106 ft 473 kts 282°
2026-04-25 19:34 -3.49157 37.49546 40115 ft 473 kts 282°
2026-04-25 19:35 -3.48095 37.43033 40118 ft 473 kts 282°
2026-04-25 19:35 -3.47038 37.36566 40122 ft 473 kts 282°
2026-04-25 19:36 -3.45975 37.30062 40127 ft 473 kts 282°
2026-04-25 19:36 -3.44916 37.23582 40125 ft 473 kts 282°
2026-04-25 19:37 -3.43657 37.17133 40128 ft 471 kts 287°
2026-04-25 19:37 -3.41557 37.10988 40120 ft 469 kts 296°
2026-04-25 19:38 -3.38588 37.05223 40126 ft 466 kts 304°
2026-04-25 19:38 -3.34879 36.99906 40146 ft 464 kts 309°
2026-04-25 19:39 -3.31018 36.94747 40181 ft 464 kts 309°
2026-04-25 19:39 -3.27170 36.89592 40249 ft 464 kts 309°
2026-04-25 19:40 -3.23333 36.84433 40336 ft 463 kts 309°
2026-04-25 19:40 -3.19483 36.79256 40388 ft 463 kts 308°
2026-04-25 19:41 -3.15645 36.74092 40393 ft 463 kts 308°
2026-04-25 19:41 -3.13080 36.70642 40369 ft 463 kts 309°
2026-04-25 19:42 -3.07940 36.63729 40285 ft 464 kts 308°
2026-04-25 19:42 -3.04097 36.58561 40247 ft 464 kts 309°
2026-04-25 19:43 -3.00252 36.53391 40212 ft 463 kts 308°
2026-04-25 19:43 -2.96408 36.48224 40202 ft 463 kts 308°
2026-04-25 19:44 -2.92560 36.43044 40196 ft 463 kts 308°
2026-04-25 19:44 -2.88729 36.37891 40193 ft 464 kts 308°
2026-04-25 19:45 -2.84890 36.32727 40187 ft 464 kts 308°
2026-04-25 19:45 -2.81053 36.27570 40183 ft 464 kts 308°
2026-04-25 19:46 -2.77416 36.22248 40174 ft 465 kts 305°
2026-04-25 19:46 -2.73867 36.16855 40164 ft 464 kts 307°
2026-04-25 19:47 -2.69990 36.11738 40156 ft 463 kts 310°
2026-04-25 19:47 -2.66164 36.06888 40144 ft 463 kts 310°
2026-04-25 19:48 -2.62457 36.02185 40132 ft 463 kts 310°
2026-04-25 19:48 -2.58517 35.97178 40121 ft 463 kts 310°
2026-04-25 19:49 -2.55901 35.93832 40122 ft 463 kts 309°
2026-04-25 19:49 -2.50806 35.86966 40126 ft 465 kts 308°
2026-04-25 19:50 -2.45071 35.79250 40138 ft 465 kts 308°
2026-04-25 19:51 -2.41217 35.74076 40148 ft 466 kts 308°
2026-04-25 19:51 -2.37338 35.68869 40166 ft 466 kts 308°
2026-04-25 19:52 -2.33465 35.63669 40188 ft 465 kts 308°
2026-04-25 19:52 -2.29606 35.58488 40211 ft 466 kts 308°
2026-04-25 19:53 -2.25722 35.53273 40231 ft 467 kts 308°
2026-04-25 19:53 -2.21824 35.48041 40247 ft 467 kts 308°
2026-04-25 19:54 -2.17930 35.42817 40256 ft 468 kts 308°
2026-04-25 19:54 -2.14035 35.37591 40255 ft 468 kts 308°
2026-04-25 19:55 -2.10096 35.32309 40263 ft 468 kts 308°
2026-04-25 19:55 -2.06077 35.26918 40264 ft 468 kts 308°
2026-04-25 19:56 -2.02115 35.21602 40260 ft 467 kts 308°
2026-04-25 19:56 -1.98186 35.16332 40258 ft 468 kts 308°
2026-04-25 19:57 -1.94307 35.11129 40258 ft 469 kts 308°
2026-04-25 19:57 -1.90376 35.05859 40249 ft 469 kts 308°
2026-04-25 19:58 -1.86451 35.00596 40246 ft 470 kts 308°
2026-04-25 19:58 -1.82537 34.95345 40239 ft 470 kts 308°
2026-04-25 19:59 -1.78575 34.90030 40234 ft 470 kts 308°
2026-04-25 19:59 -1.74655 34.84773 40235 ft 470 kts 308°
2026-04-25 20:00 -1.70734 34.79516 40227 ft 470 kts 308°
2026-04-25 20:00 -1.66816 34.74265 40221 ft 470 kts 308°
2026-04-25 20:01 -1.60939 34.66381 40202 ft 471 kts 308°
2026-04-25 20:01 -1.57012 34.61116 40186 ft 471 kts 308°
2026-04-25 20:02 -1.53090 34.55857 40182 ft 472 kts 308°
2026-04-25 20:02 -1.49152 34.50581 40170 ft 472 kts 308°
2026-04-25 20:03 -1.45226 34.45315 40169 ft 472 kts 308°
2026-04-25 20:03 -1.41302 34.40059 40170 ft 473 kts 308°
2026-04-25 20:04 -1.37395 34.34821 40164 ft 473 kts 308°
2026-04-25 20:04 -1.33456 34.29544 40163 ft 474 kts 308°
2026-04-25 20:05 -1.29521 34.24271 40151 ft 474 kts 308°
2026-04-25 20:05 -1.25576 34.18987 40151 ft 474 kts 308°
2026-04-25 20:06 -1.21635 34.13709 40147 ft 474 kts 308°
2026-04-25 20:06 -1.17647 34.08369 40142 ft 474 kts 308°
2026-04-25 20:07 -1.13733 34.03131 40130 ft 475 kts 307°
2026-04-25 20:07 -1.11740 34.00460 39823 ft 477 kts 307°
2026-04-25 20:07 -1.09760 33.97808 39264 ft 477 kts 307°
2026-04-25 20:08 -1.07782 33.95159 38506 ft 477 kts 308°
2026-04-25 20:08 -1.05800 33.92505 37964 ft 474 kts 308°
2026-04-25 20:08 -1.03811 33.89839 37447 ft 470 kts 308°
2026-04-25 20:08 -1.01878 33.87252 36928 ft 468 kts 308°
2026-04-25 20:09 -0.99921 33.84633 36387 ft 465 kts 308°
2026-04-25 20:09 -0.97971 33.82023 35787 ft 464 kts 308°
2026-04-25 20:09 -0.96020 33.79410 35170 ft 463 kts 308°
2026-04-25 20:09 -0.94144 33.76899 34572 ft 463 kts 308°
2026-04-25 20:10 -0.93517 33.76057 34374 ft 462 kts 308°
2026-04-25 20:10 -0.90321 33.71777 33370 ft 461 kts 308°
2026-04-25 20:10 -0.88406 33.69213 32777 ft 460 kts 308°
2026-04-25 20:10 -0.86460 33.66608 32183 ft 461 kts 308°
2026-04-25 20:11 -0.84531 33.64026 31570 ft 462 kts 308°
2026-04-25 20:11 -0.82644 33.61498 30932 ft 463 kts 308°
2026-04-25 20:11 -0.80716 33.58915 30273 ft 465 kts 308°
2026-04-25 20:11 -0.78743 33.56272 29598 ft 467 kts 308°
2026-04-25 20:12 -0.76814 33.53688 28932 ft 468 kts 308°
2026-04-25 20:12 -0.74869 33.51086 28413 ft 466 kts 308°
2026-04-25 20:12 -0.72923 33.48479 27941 ft 463 kts 308°
2026-04-25 20:12 -0.72271 33.47607 27782 ft 462 kts 308°
2026-04-25 20:13 -0.69054 33.43299 27024 ft 457 kts 308°
2026-04-25 20:13 -0.67119 33.40708 26581 ft 453 kts 308°
2026-04-25 20:13 -0.65173 33.38102 26135 ft 450 kts 308°
2026-04-25 20:13 -0.63282 33.35567 25702 ft 447 kts 308°
2026-04-25 20:14 -0.61389 33.32937 25254 ft 444 kts 304°
2026-04-25 20:14 -0.59774 33.30166 24821 ft 442 kts 298°
2026-04-25 20:14 -0.58456 33.27227 24384 ft 440 kts 292°
2026-04-25 20:14 -0.57414 33.24281 23963 ft 437 kts 290°
2026-04-25 20:15 -0.56426 33.21321 23544 ft 434 kts 290°
2026-04-25 20:15 -0.55433 33.18323 23115 ft 431 kts 290°
2026-04-25 20:15 -0.54463 33.15409 22689 ft 428 kts 290°
2026-04-25 20:15 -0.53490 33.12504 22257 ft 426 kts 290°
2026-04-25 20:16 -0.52518 33.09611 21840 ft 423 kts 290°
2026-04-25 20:16 -0.51532 33.06685 21383 ft 422 kts 290°
2026-04-25 20:16 -0.50567 33.03827 20923 ft 421 kts 290°
2026-04-25 20:16 -0.49620 33.01016 20470 ft 420 kts 290°
2026-04-25 20:17 -0.48685 32.98251 20021 ft 419 kts 290°
2026-04-25 20:17 -0.47743 32.95458 19560 ft 419 kts 290°
2026-04-25 20:17 -0.46799 32.92660 19100 ft 418 kts 290°
2026-04-25 20:17 -0.45815 32.89910 18628 ft 416 kts 296°
2026-04-25 20:18 -0.44422 32.87374 18152 ft 413 kts 306°
2026-04-25 20:18 -0.42603 32.85134 17686 ft 409 kts 316°
2026-04-25 20:18 -0.40570 32.83137 17256 ft 406 kts 319°
2026-04-25 20:18 -0.38494 32.81168 16831 ft 404 kts 319°
2026-04-25 20:19 -0.36471 32.79250 16408 ft 403 kts 319°
2026-04-25 20:19 -0.34425 32.77299 15981 ft 401 kts 318°
2026-04-25 20:19 -0.32399 32.75355 15559 ft 399 kts 318°
2026-04-25 20:19 -0.30379 32.73410 15128 ft 397 kts 318°
2026-04-25 20:20 -0.28421 32.71522 14713 ft 395 kts 318°
2026-04-25 20:20 -0.26414 32.69584 14295 ft 392 kts 318°
2026-04-25 20:20 -0.24418 32.67656 14114 ft 382 kts 317°
2026-04-25 20:20 -0.22502 32.65802 14108 ft 367 kts 318°
2026-04-25 20:21 -0.20667 32.64026 14106 ft 352 kts 318°
2026-04-25 20:21 -0.18895 32.62344 14101 ft 337 kts 322°
2026-04-25 20:21 -0.16905 32.61138 14085 ft 320 kts 340°
2026-04-25 20:21 -0.14734 32.60574 13831 ft 314 kts 353°
2026-04-25 20:22 -0.12593 32.60285 13562 ft 311 kts 355°
2026-04-25 20:22 -0.11855 32.60195 13470 ft 311 kts 355°
2026-04-25 20:22 -0.08246 32.59751 13020 ft 307 kts 354°
2026-04-25 20:22 -0.06077 32.59465 12769 ft 304 kts 354°
2026-04-25 20:23 -0.03936 32.59177 12513 ft 302 kts 354°
2026-04-25 20:23 -0.01865 32.58892 12282 ft 299 kts 354°
2026-04-25 20:23 0.00196 32.58606 12120 ft 293 kts 354°
2026-04-25 20:23 0.02150 32.58334 12106 ft 282 kts 354°
2026-04-25 20:24 0.04009 32.58074 12103 ft 271 kts 354°
2026-04-25 20:24 0.05792 32.57825 12022 ft 264 kts 354°
2026-04-25 20:24 0.07463 32.57593 11869 ft 261 kts 354°
2026-04-25 20:24 0.09153 32.57358 11710 ft 257 kts 354°
2026-04-25 20:25 0.10722 32.57142 11532 ft 256 kts 354°
2026-04-25 20:25 0.12365 32.56915 11328 ft 255 kts 354°
2026-04-25 20:25 0.13971 32.56693 11127 ft 254 kts 354°
2026-04-25 20:25 0.15690 32.56455 10911 ft 253 kts 354°
2026-04-25 20:26 0.17413 32.56216 10693 ft 252 kts 354°
2026-04-25 20:26 0.19032 32.55991 10485 ft 251 kts 354°
2026-04-25 20:26 0.20605 32.55773 10285 ft 251 kts 354°
2026-04-25 20:26 0.22222 32.55549 10079 ft 250 kts 354°
2026-04-25 20:27 0.23876 32.55318 9862 ft 250 kts 352°
2026-04-25 20:27 0.25462 32.54762 9607 ft 254 kts 324°
2026-04-25 20:27 0.26573 32.53428 9382 ft 257 kts 293°
2026-04-25 20:27 0.26847 32.51698 9166 ft 259 kts 265°
2026-04-25 20:28 0.26586 32.49941 8954 ft 258 kts 261°
2026-04-25 20:28 0.26294 32.48283 8745 ft 258 kts 261°
2026-04-25 20:28 0.26020 32.46637 8549 ft 257 kts 262°
2026-04-25 20:28 0.25772 32.45034 8355 ft 257 kts 262°
2026-04-25 20:29 0.25531 32.43390 8165 ft 255 kts 263°
2026-04-25 20:29 0.25213 32.41777 7968 ft 255 kts 247°
2026-04-25 20:29 0.24147 32.40446 7711 ft 254 kts 210°
2026-04-25 20:29 0.22493 32.40004 7490 ft 250 kts 172°
2026-04-25 20:30 0.20973 32.40496 7298 ft 245 kts 153°
2026-04-25 20:30 0.19508 32.41155 7100 ft 245 kts 158°
2026-04-25 20:30 0.18011 32.41702 6903 ft 244 kts 162°
2026-04-25 20:30 0.16481 32.42090 6724 ft 243 kts 167°
2026-04-25 20:31 0.14946 32.42344 6551 ft 242 kts 171°
2026-04-25 20:31 0.13359 32.42547 6360 ft 242 kts 172°
2026-04-25 20:31 0.11701 32.42763 6168 ft 240 kts 171°